Showing default

STELLA, 22824

Orbit data source: Space-Track

STELLA, 22824 is a payload satellite owned by CNES (FR) in SSO that was launched on Sun, 26 Sep 1993 UTC via an ARIANE 40 launch vehicle from the French Guiana (FRGUI). Payload-class satellites include a variety of spacecraft equipped with specific instruments for various scientific and technological missions. These include communications satellites like Starlink; space stations such as the ISS; scientific satellites like the Hubble; Earth observation satellites from companies like Planet Labs, Umbra, and HawkEye 360; GPS; miniature CubeSats for education and research; and military/defense satellites.

Loading next visibility...
Identifier
22824, 1993-061B
Orbit
SSO
Country
Flag of FRFR
Related business
Manufacturer
CNES
Mission
Operational Civil Geodetic
Bus & Motor
STARLETTE, Unknown motor
Mass
48 kg wet, 48 kg dry
Launch date (UTC)
1993-09-26 (33 years ago)
Launch vehicle
ARIANE 40
Launch site
French Guiana (FRGUI)
Object type
Payload
Rocket body
Debris
Shape & HBR
Sphere, 0.1 m
Radar Cross Section
0.045 m², Medium (>0.1 m² and < 1m²)

Expand to show TLE details & history
Last TLE update: 5 hours ago

TLE from 5 hours ago
0 STELLA
1 22824U 93061B   26255.87912264 -.00000027  00000-0  75122-5 0  9998
2 22824  98.7639 320.4079 0006119 351.8913  69.5162 14.27472368717282
Epoch: 2026-09-12T21:05Z
TLE epoch observation values (Epoch: 2026-09-12T21:05:56.196Z)
Latitude
60.36241°
Longitude
-3.59402°
Altitude
808.905 km
Speed
7.455 km/s
True Right ascension
20h 19m 05s
True Declination
60° 12' 55"
Sunlit
Object was in daylight at epoch
Visualization orbit readout
Latitude
Unknown
Longitude
Unknown
Altitude
Unknown
Speed
Unknown
Apparent Right ascension
Unknown
Apparent Declination
Unknown
Sunlit
N/A
Visualization observer readout
Local Sidereal Time
18:51:51
Azimuth
Unknown
Elevation
Unknown
Doppler factor
Unknown
Orbital elements
Apogee altitude
801.734 km
Perigee altitude
792.953 km
Semi-major axis
7,175.48 km
Eccentricity
0.00061
Inclination
98.7639°
RAAN
320.4079°
Arg. of periapsis
351.8913°
True anomaly
69.5819°
Mean anomaly
69.5162°
Eccentric anomaly
69.54905°
Mean motion
3.57081 °/min
Orbital period
100.82 mins
BSTAR
0.0000075122
Loading maneuver chart data...
Computing Atmospheric mass density...
Loading historical data...
Loading historical data...
Loading historical data...
Loading historical data...
Loading historical data...
Loading historical data...
Loading historical data...

Documentation

Showing up to 5 results
|